Main page
METAR-TAF:

METAR-TAF

Airports :

Audubon County Airport

Audubon, Iowa, United States

latitude: 41-42-04N, longitude: 094-55-13W, elevation: 1286 ft

Current weather observation

The report was made 27 minutes ago, at 01:15 UTC
Wind 6 mph from the East/Northeast
Temperature 70°F
Humidity 73%
Pressure 30.27 in. Hg
Visibility: 10 miles
Broken clouds at a height of 3700 ft
Overcast at a height of 8000 ft

METAR: KADU 200115Z AUTO 06005KT 10SM BKN037 OVC080 21/16 A3027 RMK AO2 PWINO

Time: 20:42 (01:42 UTC)


TAF: missing

Weather observations and forecasts of more than 4000 airports (METAR and TAF reports).

The available stations are represented by yellow and red dots on the map.

Hover mouse over dot to see the name of the station.

Then click to see weather observations and forecasts.

To change the map : click on the green buttons with a black cross to zoom in, on the green button with a dash to zoom out, or on the green arrows for adjacent maps.


METAR-TAF: